Prescott, AZ

3:13 PM MST on November 13, 2019 (GMT -0700)
Love

Weather History for KPRC - May, 2019

Change the Weather History Date:

Thursday, May 30, 2019

  Actual Average Record
Temperature  
Mean Temperature 62 °F 66 °F  
Max Temperature 77 °F 81 °F 94 °F (2002)
Min Temperature 47 °F 50 °F 34 °F (1953)
Degree Days  
Heating Degree Days 3    
Month to date heating degree days 278  
Since 1 July heating degree days 4327  
Cooling Degree Days 0    
Month to date cooling degree days 0  
Year to date cooling degree days 1  
Growing Degree Days 12 (Base 50)    
Moisture  
Dew Point 36 °F    
Average Humidity 41    
Maximum Humidity 71    
Minimum Humidity 19    
Precipitation  
Precipitation 0.01 in 0.02 in 0.29 in (1992)
Month to date precipitation 1.16 0.45  
Year to date precipitation 6.68 4.53  
Sea Level Pressure  
Sea Level Pressure 29.88 in    
Wind  
Wind Speed 6 mph ()    
Max Wind Speed 25 mph    
Max Gust Speed 32 mph    
Visibility 9.7 miles    
Events Rain , Thunderstorm    
T = Trace of Precipitation, MM = Missing Value Source: Averaged Metar Reports

Daily Weather History Graph

Daily Weather History Graph

Search for Another Location

Airport or City:

Astronomy

May. 30, 2019 Rise Set
Actual Time 5:18 AM MST 7:36 PM MST
Civil Twilight 4:49 AM MST 8:05 PM MST
Nautical Twilight 4:14 AM MST 8:40 PM MST
Astronomical Twilight 3:35 AM MST 9:19 PM MST
Moon 3:13 AM MST (5/30) 3:59 PM MST (5/30)
Length of Visible Light 15h 15m
Length of Day
14h 17m
Waning Crescent, 14% of the Moon is Illuminated
May 30
Waning Crescent
Jun 3
New
Jun 9
First Quarter
Jun 17
Full
Jun 25
Last Quarter

Hourly Weather History & Observations

Time (MST) Temp. Dew Point Humidity Pressure Visibility Wind Dir Wind Speed Gust Speed Precip Events Conditions
12:53 AM 48.9 °F 39.0 °F 69% 29.85 in 10.0 mi South 4.6 mph - N/A   Clear
1:53 AM 50.0 °F 37.9 °F 63% 29.84 in 10.0 mi South 3.5 mph - N/A   Clear
2:53 AM 48.0 °F 39.0 °F 71% 29.84 in 10.0 mi SSW 3.5 mph - N/A   Clear
3:53 AM 48.9 °F 37.9 °F 66% 29.85 in 10.0 mi SSW 8.1 mph - N/A   Clear
4:53 AM 48.9 °F 37.9 °F 66% 29.85 in 10.0 mi SSW 8.1 mph - N/A   Clear
5:53 AM 48.9 °F 37.9 °F 66% 29.86 in 10.0 mi SSW 6.9 mph - N/A   Clear
6:53 AM 55.0 °F 39.9 °F 57% 29.87 in 10.0 mi Calm Calm - N/A   Clear
7:53 AM 62.1 °F 41.0 °F 46% 29.87 in 10.0 mi Calm Calm - N/A   Partly Cloudy
8:53 AM 68.0 °F 39.9 °F 36% 29.87 in 10.0 mi Calm Calm - N/A   Scattered Clouds
9:24 AM 70.0 °F 39.0 °F 32% 30.06 in 10.0 mi NNE 5.8 mph - N/A Rain , Thunderstorm Thunderstorms and Rain
9:53 AM 64.9 °F 37.9 °F 37% 29.88 in 10.0 mi South 18.4 mph 27.6 mph N/A Rain Rain
10:08 AM 61.0 °F 44.1 °F 54% 30.08 in 5.0 mi SE 15.0 mph 32.2 mph 0.01 in Rain , Thunderstorm Thunderstorms and Rain
10:27 AM 63.0 °F 42.1 °F 46% 30.08 in 10.0 mi North - - 0.01 in   Mostly Cloudy
10:53 AM 63.0 °F 43.0 °F 48% 29.91 in 10.0 mi North 11.5 mph - 0.01 in   Partly Cloudy
11:53 AM 73.0 °F 36.0 °F 26% 29.88 in 10.0 mi Variable 4.6 mph - N/A   Clear
12:53 PM 75.0 °F 36.0 °F 24% 29.87 in 10.0 mi Calm Calm - N/A   Clear
1:53 PM 75.0 °F 33.1 °F 22% 29.84 in 10.0 mi SW 8.1 mph - N/A   Clear
2:53 PM 75.0 °F 30.0 °F 19% 29.83 in 10.0 mi WSW 13.8 mph - N/A   Scattered Clouds
3:53 PM 75.0 °F 30.0 °F 19% 29.82 in 10.0 mi SSW 10.4 mph - N/A   Clear
4:53 PM 72.0 °F 30.0 °F 21% 29.82 in 10.0 mi SSW 10.4 mph - N/A   Clear
5:53 PM 75.0 °F 30.0 °F 19% 29.81 in 10.0 mi SW 12.7 mph - N/A   Partly Cloudy
6:53 PM 72.0 °F 28.9 °F 20% 29.81 in 10.0 mi WSW 11.5 mph - N/A   Clear
7:53 PM 64.9 °F 30.9 °F 28% 29.83 in 10.0 mi SW 5.8 mph - N/A   Clear
8:53 PM 62.1 °F 32.0 °F 32% 29.84 in 10.0 mi South 6.9 mph - N/A   Clear
9:53 PM 57.9 °F 33.1 °F 39% 29.88 in 8.0 mi South 6.9 mph - N/A   Clear
10:53 PM 59.0 °F 32.0 °F 36% 29.88 in 9.0 mi South 8.1 mph - N/A   Clear
11:53 PM 55.0 °F 34.0 °F 45% 29.87 in 10.0 mi South 8.1 mph - N/A   Clear